Reflectivity
1 12 14 6 -20 -20 -20 -20 -20 -20 -20 -18 -20 -20 -1 4 -3 -20 -20 -20 -20 -20 -20 -20 -20 -20 -20 -20 -20 -6 -20 -20 -20 -20 -20 -20 -20 -20 -20 -20 -20 -20 -20 -20 11
-6 13 16 13 -14 -20 -20 -15 -12 -11 -18 -8 -4 -10 -20 -20 -17 -20 -20 -20 -20 -20 -20 -20 -20 -20 -20 -20 -20 -20 -20 -20 -20 -20 -20 -20 -20 -20 -20 -20 -20 -20 -20 -20 -7
4 12 -20 -6 -20 -20 -20 -20 -20 -20 -20 -3 -1 -20 12 -20 -20 -20 -20 -20 -20 -20 -20 -20 -20 -20 -20 -20 -20 -20 -20 -20 -20 -20 -20 -20 -20 -20 -20 -20 -20 -20 -20 -20 -0
7 -20 -17 -20 -20 -20 -20 -20 -20 -20 -20 -20 -20 -1 -18 -20 -20 -20 -20 -20 -20 -19 -17 -20 -20 -20 -20 -20 -20 -20 -20 -20 -20 -20 -20 -20 -20 -20 -20 -20 -20 -20 -20 -20 15
-17 -15 3 -15 -20 -20 -20 -20 -20 -20 -20 -20 -20 -1 -8 -8 -20 -20 -20 -20 -20 5 -16 -20 -20 -20 -20 -20 -20 -19 -20 -20 -20 -20 -20 -20 -20 -20 -20 -20 -20 -20 -20 -20 -7
15 12 -9 -9 -20 -20 -20 -20 -20 -20 -20 -20 -20 5 -20 -20 -20 -20 -20 -20 -20 -15 -1 -2 -20 -20 -20 -20 -16 -20 -20 -20 -20 -20 -20 -20 -20 -20 -20 -20 -20 -20 -20 -20 -19
8 6 16 -20 -20 -20 -20 -20 -20 -20 -20 -20 -20 -9 -20 -20 -20 -20 -20 -20 -20 -19 6 -18 -20 5 -19 -20 -20 -20 -20 -20 -20 -20 -20 -20 -15 -20 -20 -20 -20 -20 -20 -20 -20
8 8 -20 -20 -12 -20 -20 -20 -20 -20 -20 -20 8 -13 -16 -20 -20 -20 -20 -20 -20 -20 -20 12 14 13 6 -17 4 -8 2 -1 -20 -20 -17 4 -20 -20 -20 -20 -20 -20 -20 -20 -20
11 14 11 -15 -20 -20 -20 -20 -20 -20 -11 -2 2 -6 -20 -20 -20 -20 -20 -20 -20 -20 -20 14 25 -3 12 12 6 6 -20 4 -7 -20 -20 4 -20 -20 -20 -20 -20 -20 -20 -20 -20
-20 7 11 5 -20 -20 -20 -20 -20 -20 -20 -20 -10 -17 -20 -20 -20 -20 -20 -20 -20 -20 -20 13 -7 19 7 8 -9 6 14 4 -20 -6 -20 -13 -11 -20 -20 -20 -20 -20 -20 -20 -20
-20 4 4 7 -20 -20 -20 -20 -20 -20 -20 -20 -20 -20 -20 -20 -20 -20 -20 -20 -13 -10 -20 7 14 22 -20 4 4 -6 -4 -20 -14 -20 5 -20 -20 -20 -20 -20 -20 -20 -20 -20 -20
-20 -5 8 -2 -20 -20 -20 -20 -16 5 -15 -20 -20 -20 -20 -20 -20 -20 15 8 -8 -20 -16 12 1 -20 -14 3 11 -13 -5 -18 -10 8 -6 10 -17 -20 -20 -20 -20 -20 -20 -20 -20
-20 -20 -7 12 -20 -20 -20 -20 -20 -20 -13 -20 -20 -20 -19 -12 -9 -20 -20 1 14 1 -12 -17 -20 -20 -20 4 14 7 -1 10 10 8 1 1 -10 -20 -20 -20 -20 -20 -20 -20 -20
-20 -20 -20 8 -20 -20 -20 -20 -20 -20 -6 -20 -9 20 7 -11 30 -4 -4 2 16 3 13 19 -20 -20 -20 -10 15 15 10 7 17 17 20 10 -12 -20 -20 -20 -20 -20 -20 -20 -20
-20 -20 -20 -19 -20 -20 -20 -20 -20 2 -15 -20 -20 -10 -4 12 -2 -3 5 20 30 13 27 7 10 11 14 -20 5 -10 -15 19 7 22 33 27 13 -20 -20 -20 -20 -20 -20 -20 -20
-20 -20 -20 -20 -20 -20 -20 -20 -20 15 -20 -20 -20 -20 -20 -3 1 6 15 26 18 21 17 22 -10 13 -20 -20 12 0 17 24 24 15 23 -12 -3 -20 -20 -20 -20 -20 -20 -20 -20
-20 -20 -20 -20 -20 -20 -20 -20 -20 5 -20 -20 -20 -20 -20 -10 -20 1 2 15 30 29 12 1 33 -2 -2 21 21 22 23 24 23 22 -9 -20 -0 -20 -20 -20 -20 -20 -20 -20 -20
-20 -20 -20 -20 -20 -20 -20 -20 -20 -20 -20 -20 -20 -20 -20 5 -20 -20 3 13 16 25 16 20 19 35 5 -17 14 24 17 2 1 -0 5 -20 -14 -20 -20 -20 -20 -20 -20 -20 -20
-20 -20 -20 -20 -20 -20 -20 -20 -20 -17 16 9 -20 -20 -5 -4 -20 -20 -16 -1 10 10 14 2 13 -14 17 -19 -20 8 15 21 -4 1 14 -20 -20 -20 -20 -20 -20 -20 -20 -20 -20
-20 -20 -20 -20 -20 -20 -20 -20 -20 7 -20 -20 17 -20 10 -19 -20 -20 5 7 -8 -7 3 10 7 -20 -20 20 15 16 -20 19 21 17 -4 -20 -11 -20 -20 -20 -20 -20 -20 -20 -20
-20 -20 -20 -20 -20 -20 -20 -20 -20 -20 -20 -4 11 5 -9 8 -20 -20 5 -20 -20 -10 4 15 16 4 30 15 -12 8 26 -8 3 -19 3 7 -13 -20 -20 -20 -20 -20 -20 -20 -20
-18 -20 -20 -20 -20 -20 -20 11 -19 -20 -20 12 -9 17 17 11 -20 -20 13 7 -20 -20 -6 14 19 3 23 24 5 27 -17 -20 10 6 4 16 -12 -7 -20 -20 -20 -20 -20 -20 -20
-2 -20 -20 -20 5 -4 -14 -20 -20 -15 9 -15 8 13 -20 17 11 -20 14 -20 -20 -20 19 -6 5 5 24 20 14 26 33 26 12 13 -6 5 -20 25 15 -20 -20 -20 -20 -20 -20
-11 -8 -16 -20 -20 -12 4 -20 -20 -6 -20 -20 -2 11 11 3 11 -0 -20 5 -20 -20 5 -20 -20 8 17 19 13 18 13 15 19 21 8 -20 3 -17 22 6 -20 -20 -20 -20 -20
-11 13 -1 -18 -20 14 7 11 0 14 -9 13 -15 15 17 14 -1 -20 -15 -20 -20 -20 -20 -20 -20 -1 12 11 4 3 -10 5 -20 -16 20 -20 -20 -20 -20 -20 -20 -20 -20 -20 -20
-15 19 17 -19 -20 7 7 23 14 13 7 0 15 10 18 17 18 16 15 -16 4 -20 -20 -3 -20 -13 3 11 7 11 -6 -20 -20 -20 -20 -20 -20 -20 2 6 6 0 -20 -20 -20
10 -9 17 -7 -8 11 5 3 23 15 -20 11 -20 5 16 3 -12 -20 -5 -20 -13 -4 -20 5 -20 -20 -20 -20 -20 -20 -7 -20 -20 -20 -20 -5 -13 12 15 9 -19 -20 -20 -20 -20
Wind_Speed
17 18 18 18 18 19 20 20 20 19 18 18 19 20 20 20 18 17 21 11 11 13 12 10 11 9 5 4 2 2 6 9 11 10 6 4 8 7 3 6 5 5 3 4 17
17 17 18 19 20 20 21 21 22 21 20 20 20 18 19 19 21 25 20 16 17 18 15 18 17 14 6 6 5 9 5 9 6 9 7 4 6 8 7 10 10 7 4 6 13
18 19 17 20 21 22 22 22 23 23 22 21 19 18 16 15 13 6 2 14 18 17 15 15 13 14 12 9 9 8 9 12 8 7 6 7 8 7 9 14 11 13 13 13 14
17 19 21 22 22 23 24 24 24 24 23 23 20 18 16 8 9 5 7 3 19 17 15 16 15 14 10 15 14 11 17 17 8 8 6 12 14 14 14 17 5 7 6 13 16
19 20 21 22 24 25 26 26 26 28 28 26 21 17 10 9 18 5 4 7 15 18 21 20 20 17 14 11 14 21 13 12 15 15 16 15 18 18 14 11 14 8 6 13 17
18 20 21 23 25 26 28 28 30 29 26 21 18 13 11 19 14 12 13 5 11 18 22 22 14 16 7 15 19 9 19 18 12 14 13 17 19 18 10 18 21 18 15 13 18
20 21 22 24 25 27 29 32 30 29 28 27 22 11 17 30 5 6 10 15 17 19 24 25 19 16 10 10 19 18 19 16 18 14 13 9 21 27 22 20 17 16 18 17 18
21 20 22 24 26 27 31 33 33 32 26 16 10 11 14 9 16 22 21 9 8 11 16 20 20 19 18 9 7 13 19 16 9 20 15 10 20 6 17 23 23 21 17 17 19
24 23 22 25 27 28 31 32 35 23 13 6 5 8 13 5 10 14 17 23 15 11 9 13 20 19 16 20 15 19 18 18 15 10 10 20 19 14 18 15 18 19 19 18 18
24 24 24 24 26 29 29 34 22 6 6 3 2 4 8 4 5 4 5 18 16 11 13 16 11 13 16 19 28 15 16 18 21 13 20 19 23 17 14 12 19 20 20 21 18
25 25 24 24 25 28 18 9 8 2 8 10 12 19 21 11 10 7 3 11 17 16 23 23 16 20 47 26 19 21 22 25 19 15 16 20 22 19 20 20 19 18 19 21 23
24 24 24 25 27 21 12 7 9 7 16 17 22 26 25 22 24 20 5 13 16 25 24 17 30 44 21 23 24 21 21 26 15 10 11 15 23 20 22 21 21 21 22 20 21
23 24 24 23 23 6 13 4 4 10 9 15 7 8 4 13 14 14 23 23 20 24 26 31 38 26 25 20 26 25 26 20 20 13 16 11 21 27 26 24 24 23 23 23 23
23 25 24 24 8 9 8 2 7 6 7 8 3 6 13 17 5 21 13 27 24 24 26 29 33 18 31 29 27 23 24 24 20 16 11 16 15 21 16 17 24 23 23 23 24
24 25 23 19 10 7 7 11 10 4 9 8 6 5 21 8 16 4 21 8 25 22 12 26 20 28 23 34 24 23 15 23 18 17 6 12 8 14 15 22 20 18 22 25 25
24 26 25 11 6 7 11 12 3 5 8 9 10 23 29 10 11 10 8 16 9 20 24 19 18 20 35 24 23 25 15 22 18 14 12 18 14 21 20 23 18 19 24 24 25
24 26 20 6 5 11 10 6 5 6 15 12 23 29 22 17 19 11 17 20 15 11 17 19 23 23 17 25 21 25 15 8 10 9 12 14 17 24 4 11 15 18 19 20 23
25 26 9 4 5 8 6 4 5 9 13 16 18 22 16 21 15 17 12 7 17 15 11 8 10 20 14 22 18 15 10 8 13 13 12 17 13 15 9 17 22 22 17 18 23
21 6 4 3 5 5 5 4 6 9 8 11 19 13 16 16 12 15 10 9 7 17 11 9 8 4 17 16 21 18 17 19 2 2 4 10 12 12 19 21 18 20 19 17 20
8 6 4 6 6 2 3 5 5 5 10 13 9 9 16 16 15 17 13 10 11 12 9 5 12 12 14 21 20 17 10 11 9 7 14 12 11 9 12 10 8 10 14 15 16
4 6 4 7 3 2 2 4 5 7 9 5 12 10 9 13 15 12 10 6 14 16 12 11 6 13 12 14 17 11 6 8 8 13 11 12 10 6 7 8 8 8 2 8 13
4 6 5 6 5 1 4 4 6 10 8 6 6 6 8 13 10 8 10 6 11 16 10 6 5 10 10 23 10 19 13 15 10 12 14 3 7 7 9 4 5 3 4 4 8
6 5 1 3 4 7 6 10 10 11 9 6 8 6 12 10 8 10 7 13 13 16 11 10 8 10 10 7 12 7 8 11 14 3 16 16 14 11 12 5 6 6 8 8 9
3 4 3 1 1 3 10 13 6 7 13 7 9 11 10 12 9 11 16 7 16 15 10 8 3 5 6 11 12 12 18 15 10 8 12 18 15 19 8 6 7 3 5 8 11
0 3 3 6 10 13 15 8 15 7 4 5 6 8 9 7 16 14 17 17 9 9 7 6 6 6 11 19 18 17 18 17 10 10 12 16 21 13 13 16 7 4 8 8 7
3 4 2 11 9 11 13 4 12 11 5 9 11 16 13 12 17 19 19 15 8 7 10 8 6 12 9 11 12 17 17 17 16 14 14 20 17 8 8 11 9 13 15 5 1
1 4 4 7 7 10 9 13 6 10 7 6 12 16 16 15 12 15 15 18 17 18 18 10 5 6 7 10 17 6 1 12 7 9 12 16 19 9 13 14 15 15 6 6 4
Wind_Direction
9 7 3 357 349 347 344 338 334 332 328 325 322 319 317 324 312 289 265 241 209 214 193 168 180 178 184 176 167 199 236 239 244 237 231 210 233 201 306 255 233 214 294 84 140
10 3 357 352 345 343 339 335 331 326 324 322 319 319 322 319 307 277 252 238 224 194 177 178 182 177 193 200 185 208 230 238 248 234 247 263 255 272 251 227 225 224 221 158 151
359 355 357 347 345 341 336 332 328 324 321 318 316 317 321 319 299 253 233 227 217 201 195 197 179 179 203 180 188 196 224 230 227 232 259 264 260 249 258 249 253 223 206 185 176
357 354 349 348 342 338 334 329 325 320 316 311 308 307 313 300 274 145 34 330 189 197 188 179 177 185 207 207 200 227 232 241 230 227 255 254 266 249 245 255 318 253 212 191 199
357 350 348 343 340 334 330 326 322 318 311 306 298 294 293 239 248 220 284 15 182 176 189 188 189 200 203 215 204 227 235 237 245 252 248 257 254 256 257 251 259 229 221 206 203
351 349 344 338 338 333 329 324 321 314 310 303 300 275 252 252 269 252 261 243 215 194 205 201 209 211 254 226 214 204 233 250 249 250 248 243 250 243 232 237 244 238 230 221 209
343 342 342 341 338 336 329 325 318 307 303 296 282 253 238 238 219 271 238 239 222 212 210 213 211 196 206 236 233 238 250 244 241 243 252 253 250 241 238 238 238 239 234 226 216
336 338 339 335 335 334 329 321 310 308 302 284 265 222 249 251 259 248 242 238 213 228 235 213 217 225 227 229 214 221 237 245 240 225 226 210 252 205 229 230 236 236 229 227 224
349 344 339 335 334 334 326 322 310 313 296 292 179 200 262 301 240 257 237 229 236 227 226 227 217 218 220 228 240 226 233 217 238 206 198 205 260 251 237 226 231 229 224 220 222
342 341 338 335 333 333 330 317 314 312 354 109 17 227 248 281 261 270 244 221 216 230 219 217 215 215 220 209 220 212 219 234 242 210 222 223 250 266 252 243 231 232 225 217 213
342 341 337 335 335 332 339 327 4 283 9 288 291 261 298 296 275 240 209 189 203 212 211 203 210 216 222 213 232 240 229 241 238 225 233 245 257 256 251 244 240 238 229 226 217
344 340 336 336 333 338 344 10 40 302 300 270 260 271 272 287 281 266 246 202 199 214 208 203 215 224 218 216 217 230 237 241 248 204 230 246 262 259 253 249 244 236 234 227 220
337 334 336 336 328 335 335 334 15 350 283 311 270 264 10 332 264 278 235 239 224 231 214 210 220 229 225 216 217 215 221 224 226 211 225 251 266 264 255 248 241 234 236 231 220
338 334 337 340 310 336 311 30 329 309 280 276 13 46 329 326 255 305 268 239 239 243 227 229 236 227 216 220 207 220 212 225 236 227 238 195 265 247 245 243 231 232 225 227 224
333 332 336 336 299 296 307 323 316 213 289 32 14 257 332 337 285 328 332 245 230 230 221 222 224 228 227 221 211 230 210 224 224 221 223 205 263 252 249 250 242 228 226 221 219
332 326 331 322 290 287 312 316 200 233 260 359 337 331 336 354 354 301 334 305 249 239 240 250 236 226 228 228 218 224 223 221 231 232 239 243 227 268 247 253 246 239 233 224 216
329 324 327 321 301 327 317 297 273 262 5 358 337 334 327 330 331 344 344 34 32 307 215 223 230 232 224 220 217 207 204 185 207 215 241 236 228 244 264 266 254 247 237 226 216
327 323 326 316 329 326 314 295 287 332 344 329 328 317 330 356 328 336 356 20 33 12 303 289 207 204 206 209 199 206 197 207 217 227 226 203 237 236 247 245 248 247 247 230 218
329 338 319 14 334 317 309 293 316 351 323 324 318 327 341 345 332 351 14 33 54 33 1 330 308 134 195 213 205 199 217 223 343 220 262 228 242 259 248 249 259 259 240 233 223
329 321 308 348 323 275 278 281 312 326 323 319 311 322 329 345 344 351 1 36 7 15 342 296 289 259 208 209 219 204 188 192 206 213 222 228 233 264 273 275 298 264 240 233 227
315 321 63 332 268 263 290 294 296 279 306 306 311 303 309 346 332 345 14 357 14 337 330 288 265 320 268 198 189 198 194 195 224 229 239 250 249 272 124 105 64 25 4 244 230
343 312 31 329 307 333 295 300 307 297 303 270 283 276 292 335 318 327 335 346 357 330 325 296 289 303 291 303 265 203 195 197 206 199 228 235 242 128 113 31 332 331 308 288 239
327 292 28 300 324 334 326 285 299 291 302 300 296 285 308 318 316 298 326 333 345 333 354 336 2 320 348 10 33 3 338 254 221 276 212 216 228 155 294 349 31 347 348 332 303
337 310 312 339 54 292 319 305 289 295 289 284 276 298 316 310 301 300 309 339 328 319 341 350 333 316 326 313 295 300 305 308 317 203 195 220 234 234 192 293 310 318 335 351 332
286 313 340 300 314 308 299 271 298 297 248 287 282 284 323 290 309 298 317 323 313 307 342 9 278 287 285 277 277 274 279 286 285 283 240 229 227 233 268 298 296 329 337 339 357
293 307 249 284 299 296 300 275 284 294 266 294 287 308 303 292 297 298 308 304 307 303 320 331 284 313 269 269 261 287 296 291 273 263 261 253 259 261 282 283 278 280 300 291 2
272 271 265 277 301 299 308 313 290 305 284 270 302 303 304 311 309 295 286 278 266 275 286 277 271 316 289 320 313 311 45 326 293 255 243 241 251 260 263 264 267 275 280 239 173